Content
SEND FEEDBACK

Daily
Averages
Monthly
Summary
United States of America

CARNELIAN BAY, CALIFORNIA


Home > North America > United States > California
Elevation: 6258 feet     Latitude: 39 19N     Longitude: 120 14W

WEATHER
 
SELECT A DAY
Number of Records: 287,451;   Date Range: 1/1/95 - 10/19/14
 
SHARE

PRINT THIS DATA

[ ← Previous Day ]
WEATHER ALMANAC - JANUARY 31, 2013
[ Next Day → ]
[ °C ]   °F
Weather ElementAverageHighLow
Temperature27.3 °F50 °F (2:55 pm)14 °F (4:35 am)
Dewpoint18.2 °F26.6 °F (11:55 am)12.2 °F (4:35 am)
Humidity74 %93 % (12:55 am)22 % (2:55 pm)
Barometer30.34 in30.42 in (1:55 am)30.27 in (2:55 pm)
Wind Speed1.7 mph12.7 mph (2:55 pm)
Weather ElementAverage
Visibility8.3 mi
Wind DirectionENE (53.5 °)

Weather ElementTotal
Precipitation---
Heating Degree Days33 (Base 65)
Averaged from 49 records on January 31, 2013
WEATHER CONDITIONS BREAKOUT
WIND DIRECTION BREAKOUT
WEATHER BY HOUR - JANUARY 31, 2013
[ °C ]   °F
Local TimeTemperatureDewpointHumidityBarometerVisibilityWind DirectionWind SpeedGust SpeedPrecipitationEventsConditions
12:35 AM23.0 °F19.4 °F86 %30.41 in10.0 miSE (130°)3.5 mphClear
12:55 AM19.4 °F17.6 °F93 %30.41 in10.0 miCalmClear
1:15 AM23.0 °F21.2 °F93 %30.41 in10.0 miCalmClear
1:35 AM21.2 °F19.4 °F93 %30.41 in10.0 miCalmClear
1:55 AM19.4 °F17.6 °F93 %30.42 in10.0 miCalmClear
2:15 AM19.4 °F17.6 °F93 %30.41 in8.0 miSW (230°)3.5 mphClear
2:35 AM23.0 °F19.4 °F86 %30.41 in10.0 miCalmClear
2:55 AM19.4 °F17.6 °F93 %30.41 in1.0 miEast (90°)3.5 mphClear
3:15 AM19.4 °F17.6 °F93 %30.40 in0.5 miCalmFogLight Freezing Fog
3:35 AM17.6 °F15.8 °F93 %30.40 in0.5 miCalmFogLight Freezing Fog
3:55 AM19.4 °F17.6 °F93 %30.39 in2.5 miCalmClear
4:15 AM19.4 °F17.6 °F93 %30.39 in1.0 miSE (130°)4.6 mphClear
4:35 AM14.0 °F12.2 °F93 %30.39 in0.8 miCalmMist
4:55 AM17.6 °F15.8 °F93 %30.39 in1.0 miCalmClear
5:15 AM15.8 °F14.0 °F93 %30.39 in1.2 miCalmClear
5:35 AM15.8 °F14.0 °F93 %30.39 in0.2 miCalmFogLight Freezing Fog
6:50 AM17.6 °F15.8 °F93 %30.39 in10.0 miCalmScattered Clouds
7:45 AM15.8 °F14.0 °F93 %30.39 in10.0 miCalmScattered Clouds
8:50 AM17.6 °F15.8 °F93 %30.40 in10.0 miCalmClear
9:45 AM23.0 °F21.2 °F93 %30.39 in10.0 miCalmClear
10:55 AM26.6 °F24.8 °F93 %30.37 in10.0 miCalmClear
11:55 AM35.6 °F26.6 °F70 %30.33 in10.0 miCalmClear
12:50 PM39.2 °F26.6 °F61 %30.31 in10.0 miCalmClear
1:50 PM41.0 °F26.6 °F57 %30.28 in10.0 miSE (140°)4.6 mphClear
2:55 PM50.0 °F12.2 °F22 %30.27 in10.0 miWest (270°)12.7 mphClear
3:55 PM50.0 °F12.2 °F22 %30.27 in10.0 miWest (280°)11.5 mphClear
4:50 PM48.2 °F15.8 °F27 %30.27 in10.0 miCalmClear
4:55 PM48.2 °F14.0 °F25 %30.27 in10.0 miSW (220°)3.5 mphClear
5:15 PM48.2 °F14.0 °F25 %30.28 in10.0 miNE (40°)3.5 mphClear
5:35 PM46.4 °F15.8 °F29 %30.28 in10.0 miNW (310°)4.6 mphClear
5:55 PM37.4 °F19.4 °F48 %30.29 in10.0 miCalmClear
6:15 PM35.6 °F21.2 °F56 %30.30 in10.0 miSSE (150°)3.5 mphClear
6:35 PM32.0 °F21.2 °F64 %30.30 in10.0 miSouth (170°)5.8 mphClear
6:55 PM30.2 °F19.4 °F64 %30.30 in10.0 miSSE (160°)4.6 mphClear
7:15 PM32.0 °F19.4 °F60 %30.30 in10.0 miSE (130°)3.5 mphClear
7:35 PM28.4 °F19.4 °F69 %30.30 in10.0 miSSE (150°)3.5 mphClear
7:55 PM26.6 °F19.4 °F74 %30.30 in10.0 miNNE (20°)4.6 mphClear
8:15 PM32.0 °F19.4 °F60 %30.30 in10.0 miCalmClear
8:35 PM24.8 °F19.4 °F80 %30.31 in10.0 miCalmClear
8:55 PM26.6 °F19.4 °F74 %30.31 in10.0 miCalmClear
9:15 PM26.6 °F19.4 °F74 %30.31 in10.0 miCalmClear
9:35 PM24.8 °F19.4 °F80 %30.32 in10.0 miCalmClear
9:55 PM24.8 °F19.4 °F80 %30.31 in10.0 miCalmClear
10:15 PM24.8 °F17.6 °F74 %30.32 in10.0 miCalmClear
10:35 PM24.8 °F17.6 °F74 %30.31 in10.0 miCalmClear
10:55 PM23.0 °F17.6 °F80 %30.31 in10.0 miCalmClear
11:15 PM23.0 °F17.6 °F80 %30.31 in10.0 miCalmClear
11:35 PM23.0 °F17.6 °F80 %30.32 in10.0 miCalmClear
11:55 PM23.0 °F17.6 °F80 %30.32 in10.0 miCalmClear
Hourly data recorded from KTRK, located miles away from Carnelian Bay, California







STORIES FROM OUR PARTNERS